Overview Statistics Trail Chart Weather Telemetry Raw packets
 

This is the latest recevied weather packets stored in our database for station/object CW79215. If no packets are shown the sender has not sent any weather packets the latest 10 day(s).

<< 1 2 3 4 >>
Time Temp. Humidity Pressure Rain* Wind** Luminosity Snow
1788702648 28.33° C 30% 1032.6 hPa - - - -
1788701748 27.78° C 32% 1032.6 hPa - - - -
1788700848 28.33° C 30% 1032.8 hPa - - - -
1788699948 28.89° C 29% 1033 hPa - - - -
1788699048 27.22° C 32% 1033.2 hPa - - - -
1788698148 28.33° C 30% 1033.4 hPa - - - -
1788697247 26.67° C 32% 1033.7 hPa - - - -
1788696347 27.22° C 31% 1033.7 hPa - - - -
1788695447 27.22° C 34% 1033.8 hPa - - - -
1788694547 26.67° C 34% 1034 hPa - - - -
1788693647 26.67° C 33% 1034 hPa - - - -
1788692747 26.67° C 34% 1034.1 hPa - - - -
1788691847 24.44° C 39% 1034.3 hPa - - - -
1788690947 25° C 36% 1034.6 hPa - - - -
1788690047 25° C 35% 1034.5 hPa - - - -
1788689147 25° C 35% 1034.9 hPa - - - -
1788688246 25° C 35% 1035.1 hPa - - - -
1788687346 24.44° C 39% 1035.2 hPa - - - -
1788686446 24.44° C 36% 1035.3 hPa - - - -
1788685545 23.89° C 40% 1035.5 hPa - - - -
1788684645 24.44° C 38% 1035.5 hPa - - - -
1788683747 24.44° C 37% 1035.7 hPa - - - -
1788682847 23.89° C 36% 1035.6 hPa - - - -
1788681947 23.33° C 40% 1035.7 hPa - - - -
1788681047 22.22° C 39% 1035.7 hPa - - - -

* Rain since midnight (hover to see other rain measurements)
** Current wind speed in m/s (hover to see current wind gust speed)